Location: *
(49.6619°S, 177.4603°W)
Time: 06:29:41
(UTC+00:00)

CZ-2C R/B - Pass Details

Date: 31 January 2023
Orbit: 637 x 702 km, 98.2° (Epoch: 01 April)

Event Time Altitude Azimuth Distance (km) Brightness Sun altitude
Exits shadow 08:35:29 - 19° (NNE) 2,292 6.0 -8.8°
Reaches altitude 10° 08:36:03 10° 19° (NNE) 2,057 5.7 -8.9°
Maximum altitude 08:40:32 84° 105° (ESE) 663 3.7 -9.4°
Drops below altitude 10° 08:45:03 10° 193° (SSW) 2,069 7.2 -9.9°
Sets 08:47:17 0° 193° (SSW) 2,986 8.1 -10.2°
